Change the Weather History Date:

Saturday, May 4, 2013

  Actual Average Record
Temperature  
Mean Temperature 50 °F -  
Max Temperature 66 °F 67 °F 90 °F (1949)
Min Temperature 35 °F 43 °F 27 °F (1966)
Degree Days  
Heating Degree Days 14    
Moisture  
Dew Point 45 °F    
Average Humidity 88    
Maximum Humidity 100    
Minimum Humidity 64    
Precipitation  
Precipitation 0.34 in - - ()
Sea Level Pressure  
Sea Level Pressure 30.02 in    
Wind  
Wind Speed 8 mph (NNE)    
Max Wind Speed 13 mph    
Max Gust Speed 20 mph    
Visibility 6 miles    
Events Fog , Rain    
Averages and records for this station are not official NWS values.
T = Trace of Precipitation, MM = Missing Value Source: NWS Daily Summary

Daily Weather History Graph

Daily Weather History Graph

Search for Another Location

Airport or City:

Trip Planner

Search our weather history database for the weather conditions in past years. The results will help you decide how hot, cold, wet, or windy it might be!

Date:

Astronomy

May. 04, 2013 Rise Set
Actual Time 5:55 AM CDT 8:12 PM CDT
Civil Twilight 5:24 AM CDT 8:44 PM CDT
Nautical Twilight 4:45 AM CDT 9:23 PM CDT
Astronomical Twilight 4:01 AM CDT 10:06 PM CDT
Moon 3:03 AM CDT (5/4) 3:02 PM CDT (5/4)
Length of Visible Light 15h 19m
Length of Day
14h 16m
Waning Crescent, 27% of the Moon is Illuminated
May 4
Waning Crescent
May 9
New
May 17
First Quarter
May 24
Full
May 31
Last Quarter

Hourly Weather History & Observations

Time (CDT) Temp. Windchill Dew Point Humidity Pressure Visibility Wind Dir Wind Speed Gust Speed Precip Events Conditions
12:15 AM 35.6 °F 28.0 °F 35.6 °F 100% 30.01 in 4.0 mi NNE 10.4 mph - N/A Rain Light Rain
12:35 AM 37.4 °F 31.4 °F 37.4 °F 100% 30.01 in 3.0 mi NNE 8.1 mph - N/A Rain Light Rain
12:55 AM 37.4 °F 30.8 °F 37.4 °F 100% 30.00 in 3.0 mi NNE 9.2 mph 16.1 mph 0.07 in Rain Heavy Rain
1:15 AM 37.4 °F 30.3 °F 37.4 °F 100% 29.99 in 4.0 mi NNE 10.4 mph 19.6 mph N/A Rain Rain
1:35 AM 37.4 °F 34.9 °F 37.4 °F 100% 30.01 in 4.0 mi Variable 3.5 mph 12.7 mph N/A Rain Rain
1:55 AM 37.4 °F 30.8 °F 37.4 °F 100% 30.00 in 4.0 mi NNE 9.2 mph - 0.11 in Rain Rain
2:15 AM 37.4 °F 30.8 °F 37.4 °F 100% 29.99 in 4.0 mi NNE 9.2 mph - N/A Rain Rain
2:35 AM 37.4 °F 29.3 °F 37.4 °F 100% 29.98 in 8.0 mi NNE 12.7 mph 18.4 mph N/A Rain Light Rain
2:55 AM 37.4 °F 30.3 °F 37.4 °F 100% 29.98 in 1.0 mi NNE 10.4 mph - 0.16 in   Overcast
3:15 AM 37.4 °F 32.8 °F 37.4 °F 100% 30.00 in 0.5 mi Variable 5.8 mph - N/A Fog Fog
3:35 AM 37.4 °F 30.8 °F 37.4 °F 100% 29.99 in 0.2 mi NNE 9.2 mph 15.0 mph N/A Fog Fog
3:55 AM 37.4 °F 31.4 °F 37.4 °F 100% 29.99 in 0.2 mi NNE 8.1 mph - N/A Fog Fog
4:15 AM 37.4 °F 30.8 °F 37.4 °F 100% 29.98 in 0.2 mi North 9.2 mph 15.0 mph N/A Fog Fog
4:35 AM 37.4 °F 30.8 °F 37.4 °F 100% 29.99 in 0.5 mi NNE 9.2 mph - N/A Fog Fog
4:55 AM 37.4 °F 30.8 °F 37.4 °F 100% 29.99 in 2.0 mi NNE 9.2 mph - N/A Rain Light Rain
5:15 AM 37.4 °F 30.8 °F 37.4 °F 100% 29.99 in 2.0 mi NNE 9.2 mph - N/A   Overcast
5:35 AM 37.4 °F 31.4 °F 37.4 °F 100% 29.99 in 4.0 mi NNE 8.1 mph - N/A   Overcast
5:55 AM 37.4 °F 31.4 °F 37.4 °F 100% 29.99 in 4.0 mi North 8.1 mph - N/A   Overcast
6:15 AM 37.4 °F 32.1 °F 37.4 °F 100% 30.00 in 1.5 mi NNE 6.9 mph - N/A   Overcast
6:35 AM 37.4 °F 33.8 °F 37.4 °F 100% 30.01 in 1.0 mi NNE 4.6 mph - N/A   Overcast
6:55 AM 37.4 °F 30.8 °F 37.4 °F 100% 30.00 in 0.5 mi NNE 9.2 mph - N/A   Overcast
7:15 AM 39.2 °F 33.6 °F 39.2 °F 100% 30.00 in 0.2 mi NNE 8.1 mph 13.8 mph N/A Fog Fog
7:35 AM 39.2 °F 33.0 °F 39.2 °F 100% 30.00 in 0.2 mi NNE 9.2 mph - N/A Fog Fog
7:55 AM 39.2 °F 32.5 °F 39.2 °F 100% 30.00 in - NNE 10.4 mph - N/A   Overcast
8:15 AM 39.2 °F 35.0 °F 39.2 °F 100% 30.01 in 0.2 mi Variable 5.8 mph - N/A Fog Fog
8:35 AM 41.0 °F 36.4 °F 41.0 °F 100% 30.01 in 0.2 mi Variable 6.9 mph - N/A Fog Fog
8:55 AM 41.0 °F 35.8 °F 41.0 °F 100% 30.01 in 0.2 mi NNE 8.1 mph - N/A Fog Fog
9:15 AM 41.0 °F 35.8 °F 41.0 °F 100% 30.02 in 0.2 mi NE 8.1 mph 13.8 mph N/A Fog Fog
9:35 AM 42.8 °F 37.0 °F 42.8 °F 100% 30.02 in 0.5 mi ENE 10.4 mph - N/A   Overcast
9:55 AM 42.8 °F 38.6 °F 42.8 °F 100% 30.03 in 1.2 mi NE 6.9 mph - N/A   Overcast
10:15 AM 44.6 °F 42.2 °F 44.6 °F 100% 30.04 in 2.0 mi NE 4.6 mph - N/A   Overcast
10:35 AM 44.6 °F 40.2 °F 44.6 °F 100% 30.04 in 3.0 mi Variable 8.1 mph - N/A   Overcast
10:55 AM 46.4 °F 42.9 °F 46.4 °F 100% 30.05 in 4.0 mi ENE 6.9 mph - N/A   Overcast
11:15 AM 48.2 °F - 48.2 °F 100% 30.05 in 6.0 mi NE 6.9 mph - N/A   Overcast
11:35 AM 50.0 °F - 48.2 °F 94% 30.05 in 7.0 mi Variable 5.8 mph - N/A   Overcast
11:55 AM 51.8 °F - 50.0 °F 94% 30.04 in 8.0 mi Variable 4.6 mph - N/A   Mostly Cloudy
12:15 PM 53.6 °F - 50.0 °F 88% 30.04 in 9.0 mi Variable 5.8 mph 12.7 mph N/A   Partly Cloudy
12:35 PM 57.2 °F - 51.8 °F 82% 30.04 in 10.0 mi ENE 6.9 mph - N/A   Partly Cloudy
12:55 PM 57.2 °F - 51.8 °F 82% 30.04 in 10.0 mi North 4.6 mph - N/A   Mostly Cloudy
1:15 PM 59.0 °F - 53.6 °F 82% 30.03 in 10.0 mi Variable 5.8 mph 11.5 mph N/A   Mostly Cloudy
1:35 PM 62.6 °F - 53.6 °F 72% 30.03 in 10.0 mi ENE 5.8 mph - N/A   Mostly Cloudy
1:55 PM 62.6 °F - 53.6 °F 72% 30.02 in 10.0 mi NE 6.9 mph - N/A   Mostly Cloudy
2:15 PM 64.4 °F - 53.6 °F 68% 30.02 in 10.0 mi NNE 6.9 mph 12.7 mph N/A   Partly Cloudy
2:35 PM 64.4 °F - 55.4 °F 73% 30.02 in 10.0 mi NE 8.1 mph 13.8 mph N/A   Partly Cloudy
2:55 PM 64.4 °F - 55.4 °F 73% 30.01 in 10.0 mi NE 6.9 mph - N/A   Scattered Clouds
3:15 PM 66.2 °F - 53.6 °F 64% 30.01 in 9.0 mi NNE 6.9 mph 12.7 mph N/A   Scattered Clouds
3:35 PM 64.4 °F - 55.4 °F 73% 30.00 in 3.0 mi North 9.2 mph - N/A   Haze
3:55 PM 64.4 °F - 55.4 °F 73% 30.00 in 5.0 mi North 11.5 mph - N/A   Haze
4:15 PM 64.4 °F - 55.4 °F 73% 30.00 in 6.0 mi North 10.4 mph 17.3 mph N/A   Haze
4:35 PM 64.4 °F - 55.4 °F 73% 30.00 in 10.0 mi North 10.4 mph 16.1 mph N/A   Scattered Clouds
4:55 PM 62.6 °F - 55.4 °F 77% 30.00 in 10.0 mi NNW 9.2 mph 16.1 mph N/A   Partly Cloudy
5:15 PM 62.6 °F - 55.4 °F 77% 30.00 in 10.0 mi North 8.1 mph - N/A   Mostly Cloudy
5:35 PM 62.6 °F - 53.6 °F 72% 30.01 in 10.0 mi North 8.1 mph - N/A   Mostly Cloudy
5:55 PM 62.6 °F - 53.6 °F 72% 30.01 in 10.0 mi North 8.1 mph - N/A   Mostly Cloudy
6:15 PM 60.8 °F - 53.6 °F 77% 30.02 in 10.0 mi NNW 8.1 mph - N/A   Mostly Cloudy
6:35 PM 60.8 °F - 51.8 °F 72% 30.02 in 10.0 mi North 10.4 mph - N/A   Partly Cloudy
6:55 PM 60.8 °F - 51.8 °F 72% 30.02 in 10.0 mi NNW 8.1 mph - N/A   Partly Cloudy
7:15 PM 59.0 °F - 50.0 °F 72% 30.02 in 10.0 mi NNW 11.5 mph - N/A   Partly Cloudy
7:35 PM 57.2 °F - 50.0 °F 77% 30.03 in 10.0 mi NNW 9.2 mph - N/A   Clear
7:55 PM 55.4 °F - 48.2 °F 77% 30.04 in 10.0 mi North 9.2 mph - N/A   Clear
8:15 PM 53.6 °F - 48.2 °F 82% 30.04 in 10.0 mi NNW 9.2 mph - N/A   Mostly Cloudy
8:35 PM 53.6 °F - 46.4 °F 77% 30.05 in 10.0 mi NNW 8.1 mph - N/A   Overcast
8:55 PM 51.8 °F - 46.4 °F 82% 30.05 in 10.0 mi NNW 8.1 mph - N/A   Overcast
9:15 PM 51.8 °F - 46.4 °F 82% 30.06 in 10.0 mi North 6.9 mph - N/A   Overcast
9:35 PM 51.8 °F - 44.6 °F 76% 30.06 in 10.0 mi North 9.2 mph - N/A   Overcast
9:55 PM 51.8 °F - 44.6 °F 76% 30.07 in 10.0 mi North 8.1 mph - N/A   Overcast
10:15 PM 51.8 °F - 44.6 °F 76% 30.07 in 10.0 mi North 6.9 mph - N/A   Overcast
10:35 PM 50.0 °F - 44.6 °F 82% 30.07 in 10.0 mi NNW 6.9 mph - N/A   Overcast
10:55 PM 50.0 °F - 44.6 °F 82% 30.07 in 10.0 mi North 6.9 mph - N/A   Overcast
11:15 PM 50.0 °F - 44.6 °F 82% 30.07 in 10.0 mi NNW 6.9 mph - N/A   Overcast
11:35 PM 50.0 °F - 44.6 °F 82% 30.07 in 10.0 mi NNW 6.9 mph - N/A   Overcast
11:55 PM 50.0 °F - 44.6 °F 82% 30.07 in 10.0 mi North 5.8 mph - N/A   Overcast